Regional Weather Roundup
Issued by NWS

Home | Current Version | Previous Version | Text Only | Print | Product List | Glossary Off
Versions: 1 2 3 4 5 6 7 8 9 10 11 12 13 14 15 16 17 18 19 20 21 22 23 24 25 26 27 28 29 30 31 32 33 34 35 36 37 38 39 40 41 42 43 44 45 46 47 48 49 50

000
ASUS43 KOAX 292002
RWRNE

WEATHER ROUNDUP FOR NEBRASKA
NATIONAL WEATHER SERVICE OMAHA NE
300 PM CDT SAT AUG 29 2015

NOTES: SATELLITE DATA IS BEING USED TO AUGMENT CLOUD COVER ABOVE
       12000 FEET.
       "FAIR" INDICATES FEW OR NO CLOUDS BELOW 12,000 FEET WITH NO
       SIGNIFICANT WEATHER AND/OR OBSTRUCTIONS TO VISIBILITY.

  * THESE STATIONS DO NOT REPORT WEATHER SUCH AS RAIN...SNOW OR FOG.

NEZ001>004-019>022-054>056-292100-
NEBRASKA PANHANDLE

CITY           SKY/WX    TMP DP  RH WIND       PRES   REMARKS
SCOTTSBLUFF    SUNNY     93  42  17 S12       30.09F
ALLIANCE       SUNNY     93  38  14 S12G18    30.10F
CHADRON        SUNNY     95  41  15 S15G23    30.02F HAZE    HX  91
KIMBALL        SUNNY     87  37  16 S8G18     30.16F
SIDNEY         SUNNY     91  32  12 SW12      30.16F
$$

NEZ057>060-069>072-079>082-292100-
SOUTHWEST NEBRASKA

CITY           SKY/WX    TMP DP  RH WIND       PRES   REMARKS
NORTH PLATTE   PTSUNNY   88  52  29 S5        30.09F
IMPERIAL       SUNNY     92  47  21 S8        30.11F
MCCOOK         SUNNY     91  48  22 CALM      30.09F
$$

NEZ005>010-023>029-035>040-094-292100-
NORTH CENTRAL NEBRASKA

CITY           SKY/WX    TMP DP  RH WIND       PRES   REMARKS
VALENTINE      SUNNY     91  47  21 S8        30.04F
AINSWORTH      SUNNY     89  53  29 SW8       30.05F
BROKEN BOW     PTSUNNY   86  59  39 S5        30.08F
O`NEILL        MOSUNNY   84  62  47 S8        30.06S
ORD            MOSUNNY   85  61  44 CALM      30.06S
$$

NEZ041-046>049-061>064-073>077-083>087-292100-
SOUTH CENTRAL NEBRASKA

CITY           SKY/WX    TMP DP  RH WIND       PRES   REMARKS
GRAND ISLAND   SUNNY     81  61  50 E7        30.09S
AURORA         SUNNY     78  63  60 E5        30.08F
HASTINGS       SUNNY     80  63  55 VRB5      30.09F
KEARNEY *      SUNNY     84  63  48 E5        30.09S
YORK           SUNNY     75  64  69 CALM      30.08F
$$

NEZ011>018-030>034-042>045-292100-
NORTHEAST NEBRASKA

CITY           SKY/WX    TMP DP  RH WIND       PRES   REMARKS
NORFOLK        MOSUNNY   77  64  64 SE7       30.06F
BLAIR          CLOUDY    65  59  82 CALM      30.08S
COLUMBUS *     SUNNY     75  63  64 CALM      30.06F
FREMONT        MOSUNNY   71  62  72 CALM      30.08F
TEKAMAH        CLOUDY    66  60  81 CALM      30.07F
$$

NEZ050>053-065>068-078-088>093-292100-
SOUTHEAST NEBRASKA

CITY           SKY/WX    TMP DP  RH WIND       PRES   REMARKS
LINCOLN        MOSUNNY   73  62  68 VRB7      30.08F
OMAHA EPPLEY   CLOUDY    69  61  75 W5        30.07S
FALLS CITY     CLOUDY    67  63  87 N5        30.05F
NEBRASKA CITY  CLOUDY    64  62  93 N5        30.08S
PLATTSMOUTH    CLOUDY    66  59  79 NW3       30.07F
$$

NEZ044-045-051>053-067-292100-
OMAHA AREA

CITY           SKY/WX    TMP DP  RH WIND       PRES   REMARKS
OMAHA EPPLEY   CLOUDY    69  61  75 W5        30.07S
BLAIR          CLOUDY    65  59  82 CALM      30.08S
FREMONT        MOSUNNY   71  62  72 CALM      30.08F
OFFUTT AFB     CLOUDY    68  61  77 VRB2      30.06F
PLATTSMOUTH    CLOUDY    66  59  79 NW3       30.07F
WAHOO          FAIR      70  62  75 N3        30.07F
$$




USA.gov is the U.S. government's official web portal to all federal, state and local government web resources and services.